Dewpoint
59 59 59 59 59 60 59 59 59 59 60 60 60 60 60 60 59 59 60 60 60 60 60 60 61 61 60 60 59 59 57 39 28 26 22 23 39 53 57 60 61 60 59 46 25 23 21 18 15 15 11 14 18 22 18 24 34 35 28 30 27 32 31 33 30 28 29 25 23 26 27 30 29 30 31 31 26 31 31 33 30 26 26 27 28 28 28 28
58 59 59 59 59 59 59 59 59 59 59 59 59 59 59 60 60 60 60 60 60 60 60 60 60 60 60 60 59 59 49 35 22 22 21 41 55 59 60 60 60 58 53 25 27 25 22 20 19 15 14 16 25 20 24 24 31 31 30 29 25 31 33 33 27 26 22 22 26 28 29 29 29 28 30 26 24 25 29 27 24 25 24 24 26 25 25 24
58 58 58 58 58 59 59 59 59 59 59 59 59 59 59 59 59 59 59 60 60 60 60 60 60 60 60 60 59 58 44 35 24 22 23 56 55 56 59 59 59 58 36 28 30 30 26 24 21 16 13 14 18 20 24 22 28 34 30 28 30 32 30 20 20 23 23 24 25 27 26 24 25 29 28 24 22 22 22 21 22 22 22 22 24 23 23 23
58 58 58 58 58 58 58 59 59 59 59 59 59 59 59 59 59 59 59 59 60 59 60 60 60 60 60 59 59 54 38 23 20 24 28 53 56 56 59 59 59 54 44 37 35 34 30 25 24 15 19 19 22 25 24 24 26 28 31 30 31 32 26 22 16 23 22 23 25 27 25 23 23 23 28 26 25 21 21 21 20 19 20 21 21 22 21 21
57 57 57 57 57 58 57 58 58 59 59 59 59 59 59 59 59 59 59 59 59 60 59 60 60 60 59 60 58 46 29 19 21 26 21 51 53 58 60 59 59 47 41 33 36 34 26 22 18 20 20 14 26 20 22 25 25 31 29 31 31 26 20 19 21 22 21 23 24 24 24 24 24 22 22 23 22 21 21 20 19 18 18 18 18 16 14 14
57 56 56 57 57 57 57 57 58 58 58 58 59 59 59 59 58 58 58 58 59 59 59 59 59 59 58 58 47 44 29 14 25 18 43 50 53 54 55 57 59 48 34 25 26 23 12 12 11 16 19 16 15 14 18 23 26 23 26 24 26 22 18 18 19 21 21 22 23 24 23 22 21 21 21 21 20 19 19 19 18 17 16 14 13 12 10 8
56 56 56 56 56 56 57 57 57 58 57 58 59 59 59 58 58 58 58 58 58 59 59 59 59 59 59 56 49 27 19 21 19 22 45 51 53 54 51 54 49 34 23 18 18 16 14 12 9 18 17 18 18 16 16 19 24 25 24 25 15 17 18 19 20 21 22 23 23 23 23 21 21 19 20 19 19 18 19 18 16 15 14 13 11 9 8 7
55 55 55 55 56 56 56 56 57 57 58 58 58 59 59 58 58 58 58 58 58 59 59 59 59 60 56 40 33 25 17 17 16 24 43 50 42 30 45 29 32 27 18 18 18 15 13 13 11 17 15 15 20 16 25 14 26 25 23 24 15 18 19 19 20 20 20 20 21 21 20 20 20 19 18 17 16 15 14 13 12 11 10 9 8 6 5 4
55 55 55 55 55 55 56 56 56 57 57 58 58 58 58 58 58 58 58 58 58 58 59 59 59 59 57 35 25 16 13 15 20 18 24 23 21 22 26 19 22 20 20 18 18 16 14 14 16 14 16 16 19 23 23 17 18 26 24 25 15 18 18 19 19 20 20 20 20 20 19 19 19 19 17 16 15 13 11 10 9 7 6 6 6 4 2 1
55 54 54 54 54 55 55 56 56 56 57 57 58 58 58 58 58 58 58 58 58 58 58 59 59 58 42 31 24 14 16 18 19 20 22 22 22 23 22 22 21 20 18 17 17 16 14 15 17 18 15 14 23 22 26 21 18 28 27 22 16 18 18 18 18 17 17 18 18 18 18 18 19 19 16 17 14 12 10 8 7 5 5 4 4 5 3 1
54 54 54 54 54 55 55 55 56 56 57 57 58 58 58 58 58 58 58 58 58 57 57 59 59 51 34 22 16 14 16 19 19 21 21 24 23 22 22 21 22 21 19 19 18 20 17 20 20 25 24 18 21 23 26 26 28 26 24 24 23 18 17 17 16 16 16 17 19 18 18 19 18 17 16 14 13 11 9 8 7 5 4 3 3 3 4 2
54 54 54 54 54 55 55 55 56 57 57 58 58 58 58 58 58 58 58 58 58 58 59 58 58 43 23 19 18 18 19 18 23 22 21 24 23 23 23 22 21 21 20 19 18 19 23 23 21 25 14 23 20 26 28 30 25 23 23 17 23 19 16 17 16 16 17 16 18 18 17 17 17 15 15 14 12 11 9 9 8 6 5 4 3 3 3 3
53 53 53 53 54 55 55 56 56 57 57 58 58 58 57 58 58 58 58 58 58 58 58 58 58 43 33 20 20 20 22 21 28 23 21 23 23 24 27 22 21 22 22 20 19 19 29 26 20 20 27 25 25 15 25 25 25 25 24 19 20 23 20 17 17 18 16 16 17 19 13 15 15 15 14 13 11 10 9 9 9 8 7 6 4 4 3 3
53 53 53 54 54 55 55 55 56 56 57 57 58 57 57 58 58 58 59 57 57 58 58 58 48 36 28 18 20 22 30 32 21 20 20 23 22 22 22 23 22 22 23 21 20 23 23 26 22 25 32 21 21 29 26 28 28 16 23 25 18 17 16 18 17 17 17 19 19 25 15 15 16 15 15 14 12 10 9 9 9 9 9 8 8 6 4 3
53 53 53 54 54 55 55 56 56 56 57 57 57 57 57 57 58 58 58 59 58 58 57 54 44 34 24 20 21 23 48 21 19 19 21 20 21 22 23 23 22 22 20 20 23 23 24 27 27 28 26 33 31 26 25 25 25 26 18 16 20 15 18 22 21 19 16 17 17 18 14 15 15 15 14 13 12 10 9 9 9 9 9 9 8 7 6 5
53 53 53 54 54 55 55 56 56 56 57 57 57 56 58 57 56 57 58 58 57 57 53 41 41 23 22 18 16 36 22 19 19 20 19 21 22 22 23 22 22 19 18 19 22 22 24 25 24 25 25 25 26 23 21 21 21 22 19 14 13 19 19 19 19 18 18 18 16 20 14 15 14 15 14 13 11 10 9 8 8 8 8 8 7 7 7 6
52 53 53 54 54 55 55 55 56 56 57 57 58 55 56 56 56 56 56 55 54 53 40 34 36 35 20 20 20 19 19 20 22 20 19 24 23 24 24 20 19 20 19 19 21 20 20 23 30 24 29 24 25 24 19 18 17 19 22 15 19 17 16 17 23 19 18 17 14 16 15 15 14 14 14 13 10 9 8 8 8 8 8 8 7 6 6 6
52 53 54 54 54 55 55 56 56 56 56 57 57 55 52 55 56 50 45 48 47 46 44 39 38 26 21 20 17 18 20 22 22 20 21 24 25 24 23 21 20 20 20 20 22 22 26 23 25 20 22 22 23 22 19 11 17 18 19 18 19 21 21 21 21 23 16 17 15 15 14 14 14 14 13 11 10 9 8 8 8 8 8 8 7 6 6 6
52 53 53 54 54 55 55 56 56 56 56 57 57 57 56 54 48 33 35 34 32 24 23 22 25 16 15 18 18 20 22 23 23 21 21 23 26 25 25 23 22 21 24 22 21 23 25 24 24 21 20 22 20 23 20 20 22 21 21 20 19 19 20 20 21 20 17 14 15 14 14 14 14 14 13 11 9 9 8 8 8 8 8 7 6 6 6 6
52 53 53 54 54 55 55 56 56 55 56 47 47 44 41 32 26 26 31 33 26 26 26 26 29 28 24 19 19 21 23 20 19 20 21 24 23 22 25 24 28 27 29 21 25 22 27 19 20 17 21 22 22 21 24 23 24 24 23 22 21 21 22 23 20 18 18 16 14 14 14 14 14 13 12 10 10 9 8 8 8 8 7 7 7 7 6 6
52 53 53 54 54 55 55 56 56 55 55 45 45 40 32 27 21 20 28 34 36 32 25 26 25 22 19 20 21 21 18 17 20 20 21 26 24 24 24 28 26 22 25 28 23 25 21 17 18 21 22 23 20 23 24 20 22 23 22 20 19 21 20 23 22 23 24 17 13 14 13 13 14 13 12 11 10 8 8 8 7 7 7 7 7 7 7 7
52 53 53 54 54 55 55 56 56 56 55 47 44 40 41 37 39 30 29 22 30 34 27 26 23 18 20 21 21 23 21 18 18 20 21 25 25 23 25 23 22 21 24 27 21 16 14 16 18 19 22 24 22 22 23 19 18 19 17 19 15 18 22 23 22 21 17 16 13 14 13 14 14 14 15 13 11 10 9 8 7 7 7 6 6 7 8 8
52 53 54 54 55 55 56 56 56 55 45 44 41 41 41 44 46 45 33 27 26 31 29 25 19 19 19 20 20 23 19 19 20 19 21 23 25 26 28 20 19 18 18 18 17 16 11 16 17 20 23 20 20 22 20 20 20 17 16 16 12 18 16 11 19 17 17 17 13 14 13 14 15 15 15 14 13 13 11 9 9 9 7 6 6 6 7 6
53 53 54 54 55 55 55 56 54 45 42 43 42 41 44 45 45 44 33 26 25 28 31 28 24 22 21 20 21 23 19 22 22 18 22 23 25 26 29 21 18 18 17 18 16 15 15 17 18 21 23 20 20 21 20 18 17 21 19 17 16 18 18 17 17 16 16 17 16 14 13 14 14 14 13 15 14 12 13 12 12 12 11 9 9 8 7 6
53 53 54 54 54 55 55 53 41 40 42 42 43 44 44 45 46 44 30 22 20 21 34 27 28 19 19 22 24 24 26 24 22 22 24 23 24 28 25 29 25 21 20 20 19 17 16 17 21 20 18 20 19 18 21 18 16 18 20 20 19 20 19 19 15 16 14 12 15 15 7 10 13 14 13 14 14 11 11 11 10 11 11 11 9 8 10 10
53 53 54 54 54 54 56 41 39 42 41 35 43 44 44 43 45 45 28 21 10 18 26 20 26 20 22 22 23 31 25 23 24 22 29 24 28 28 28 23 27 19 22 21 20 20 20 19 19 19 19 18 19 18 20 19 15 11 11 21 21 20 20 20 16 17 11 7 15 18 12 1 12 13 14 14 14 12 14 12 11 11 10 10 9 9 10 9
53 54 54 54 55 54 40 33 37 45 38 38 45 43 43 44 45 42 28 15 11 17 16 24 24 21 26 23 25 27 17 19 24 22 20 24 26 31 24 23 26 27 27 23 16 11 23 18 17 17 16 17 16 15 16 20 14 9 14 21 21 20 19 20 20 19 16 20 19 16 16 10 7 12 14 14 14 14 13 13 12 11 10 10 9 10 9 9
53 53 54 54 55 50 38 41 36 31 38 43 44 43 44 45 44 32 21 1 -0 22 18 23 21 26 26 27 23 20 20 24 20 18 22 24 27 25 25 23 23 23 25 16 8 13 19 17 18 16 16 15 14 15 18 22 17 15 18 22 21 21 21 20 19 18 18 15 9 15 18 14 9 12 14 14 12 13 13 13 13 12 11 10 10 10 10 10
52 53 54 54 54 51 43 42 39 36 41 43 44 43 46 42 36 24 17 -2 7 22 25 21 27 23 26 27 21 26 24 25 19 22 23 25 22 25 21 23 24 23 25 18 12 19 19 19 19 17 16 14 17 17 18 20 14 18 21 21 22 23 22 20 16 16 12 10 2 14 18 10 9 12 12 13 12 12 13 13 13 12 11 11 11 11 11 12
52 53 54 54 46 41 43 42 40 40 43 44 43 45 43 36 24 18 1 -7 18 7 23 23 22 19 26 22 20 23 17 21 25 25 22 21 21 23 27 29 25 23 22 25 23 20 19 29 30 19 16 16 16 17 20 22 20 22 18 15 16 14 17 18 17 11 5 1 6 11 18 11 6 10 12 12 13 14 14 13 14 13 12 12 12 11 12 13
52 53 54 52 38 39 42 39 41 43 43 43 46 42 29 21 20 8 -7 -0 21 19 23 20 18 27 21 19 18 23 23 23 21 23 18 23 20 22 23 20 23 20 17 20 19 22 20 21 20 19 26 21 16 10 19 23 20 15 11 11 7 -3 2 9 8 7 -2 -6 -1 11 18 11 4 5 13 14 16 15 15 14 13 13 13 13 13 13 12 14
52 53 53 48 44 42 39 40 44 44 42 45 43 37 21 2 17 9 3 23 9 15 15 16 21 22 22 23 21 21 20 22 21 21 19 19 19 19 19 16 19 6 9 12 10 19 15 15 18 20 27 18 16 6 3 16 14 13 6 7 -1 -12 -9 -17 -4 -11 -6 -13 -3 12 13 6 9 8 15 15 16 17 17 16 14 14 13 14 15 15 15 16
53 52 52 48 45 38 42 43 44 44 44 43 35 28 15 11 -6 1 10 15 4 17 14 20 20 23 22 21 19 21 23 17 21 19 21 19 19 19 21 21 21 13 3 13 11 10 11 17 17 18 18 20 10 -2 3 -1 6 12 7 3 -4 -9 -13 -13 -11 -8 -8 -1 3 9 10 7 8 12 15 15 16 18 18 18 17 15 14 15 16 17 17 18
52 51 43 46 42 41 41 42 43 44 44 40 26 22 17 7 -1 24 11 15 19 25 24 21 23 21 20 15 19 21 17 19 20 17 20 15 18 16 18 20 21 20 18 15 10 9 -2 -0 6 14 8 17 18 11 10 5 12 13 17 6 -3 -6 -10 -13 -10 -13 -13 -2 2 6 1 -2 3 7 13 15 17 18 18 18 17 16 16 17 17 17 17 17
52 48 44 43 43 43 42 41 42 43 37 25 20 19 7 -1 5 10 14 19 20 21 23 23 22 18 15 18 18 20 18 13 20 19 18 14 13 16 16 18 20 21 20 8 2 8 8 -1 7 19 14 17 15 17 20 19 12 8 12 9 -1 -7 5 -2 -9 -4 -5 -1 1 -2 -0 2 10 13 18 17 17 16 18 18 18 17 17 17 17 17 17 17
50 47 47 39 37 40 41 43 41 43 27 20 19 16 9 5 8 20 20 23 25 17 20 21 18 15 13 13 18 15 18 13 16 18 14 17 17 15 19 19 18 20 16 3 5 4 10 5 14 18 19 14 13 15 14 10 -3 -1 0 -10 -8 6 7 1 6 9 2 -6 -2 -6 7 8 10 13 14 14 14 14 16 17 15 16 16 17 17 17 17 18
44 41 31 32 36 41 42 43 43 31 22 18 16 10 13 20 23 25 33 21 25 23 18 8 8 10 9 9 12 13 14 17 12 14 10 16 3 19 18 19 21 20 21 16 10 9 2 5 16 17 13 16 18 17 16 17 11 6 -7 -1 13 15 13 7 -1 -8 -12 -6 -5 0 -1 -1 -2 -2 11 13 12 13 14 14 15 16 16 16 17 17 18 18
43 37 35 31 33 40 42 41 41 30 25 22 22 28 23 20 25 27 27 24 26 22 16 13 9 16 9 10 10 10 16 13 13 15 10 15 0 18 18 16 19 21 22 22 8 10 15 0 7 15 14 16 20 19 18 15 17 -3 1 9 -3 -12 -8 1 -9 -12 -12 -13 -8 0 -4 -3 -1 3 8 11 12 12 13 13 12 14 15 16 17 17 18 18
38 31 22 27 34 41 42 39 29 20 16 20 19 24 24 24 26 26 27 25 26 22 16 15 9 14 13 10 11 13 12 11 11 14 4 9 1 16 15 18 17 21 23 23 16 18 14 0 6 13 11 15 11 12 1 6 13 17 13 3 11 8 -10 -5 -7 -7 -6 -7 -5 -7 -10 -6 -0 2 10 10 12 13 12 9 13 14 15 16 16 17 17 17
35 26 16 25 33 40 40 32 27 25 21 19 17 17 24 23 25 26 27 25 21 19 16 16 20 13 15 13 14 10 13 14 14 14 11 12 10 20 19 21 17 22 23 23 21 20 9 8 -6 3 14 14 8 11 7 8 2 6 5 1 5 -2 8 3 -1 -1 0 -7 -10 -9 -7 -7 4 11 12 12 11 12 12 12 13 14 15 15 16 16 17 17
33 26 21 30 32 36 28 27 23 24 23 22 24 24 24 21 25 23 27 29 28 25 20 21 20 16 17 11 11 18 14 17 16 11 16 14 12 4 20 21 23 22 22 18 15 17 4 7 -4 4 4 8 6 11 11 10 7 7 7 -0 6 -6 -10 -11 -7 -4 -4 -6 -9 -9 -7 -4 2 13 13 12 11 11 13 13 13 14 14 15 16 17 17 15
25 15 22 29 32 31 25 22 23 23 24 20 20 25 24 34 22 23 23 23 23 20 23 23 21 21 21 18 16 18 16 14 17 13 15 5 13 7 9 22 24 24 19 12 11 17 14 12 7 -1 3 6 12 13 15 13 10 9 9 5 7 -1 -6 -11 -13 -6 -7 -5 -3 -6 -5 -1 5 12 12 11 10 11 12 13 13 12 13 14 15 15 13 11
27 19 28 33 32 25 20 20 23 25 20 24 27 24 25 24 22 24 22 24 19 22 22 22 21 18 18 19 19 18 17 11 18 15 17 16 12 16 15 22 23 22 22 16 19 19 26 -4 -5 -0 -2 6 5 12 14 15 14 10 11 10 4 -2 0 0 -5 -9 -6 -6 -4 -11 -11 -3 2 12 12 11 10 10 10 10 11 9 9 8 8 6 6 6
25 21 23 31 32 31 21 16 15 15 19 22 24 23 25 25 24 24 22 23 22 19 21 21 20 20 19 22 19 16 19 2 10 16 14 17 9 18 20 21 21 19 7 1 1 11 -2 1 -3 -10 -7 -3 -2 1 8 8 13 9 6 9 8 5 3 -5 -2 -3 -3 -8 -1 -7 -8 -5 -0 11 12 10 8 9 9 10 9 8 8 8 7 5 4 3
23 26 27 26 28 25 16 22 20 20 21 21 20 19 21 23 25 25 23 22 24 20 17 18 20 21 20 21 20 20 18 11 11 12 12 14 11 24 23 20 20 19 23 22 28 22 6 7 -5 -12 -17 -17 -15 -14 -10 -6 -2 6 12 12 10 4 4 -0 -3 1 -3 -2 -4 -11 -9 -4 -3 10 11 10 8 8 9 9 9 8 8 6 5 5 4 1
23 11 19 20 24 26 27 25 24 21 20 15 17 19 21 20 22 25 22 20 24 23 20 20 22 22 21 19 17 18 16 19 10 8 11 13 13 18 23 22 21 19 23 29 26 20 8 12 -6 -4 -6 -7 -4 -4 -5 8 7 1 1 9 7 6 -1 -5 -3 -3 -2 -5 -7 -3 -3 -4 -4 -4 -3 -2 2 5 6 7 8 7 6 6 5 5 2 -0
25 19 18 13 20 22 23 25 23 23 17 21 15 18 15 20 20 20 23 17 21 23 23 23 23 18 18 19 18 18 19 18 17 9 9 9 9 15 18 22 22 23 29 28 24 7 -2 -5 7 -1 -2 -1 -3 -5 -6 9 -2 -2 -2 2 6 7 5 2 -1 -2 1 -8 -5 -0 -1 -3 -3 -4 -4 -1 2 4 5 6 7 6 5 6 6 5 12 -2
20 19 23 22 23 14 21 17 24 24 23 23 18 22 20 19 20 15 23 23 24 22 20 20 23 23 21 20 18 8 16 16 12 5 13 10 13 12 13 23 23 27 26 15 12 -1 -8 -10 -4 3 2 5 4 3 2 1 3 5 5 3 3 8 5 3 1 3 -2 -7 -6 -7 -2 -3 -4 -4 -1 2 5 6 6 6 6 6 6 6 3 1 5 2
26 24 23 24 19 20 22 22 24 24 24 23 25 22 20 19 19 21 22 23 22 21 20 10 19 22 23 23 19 12 19 3 0 7 9 6 8 10 2 2 19 13 16 10 12 -0 3 -2 1 1 5 7 6 5 3 3 5 5 5 5 5 7 8 8 7 5 2 1 0 1 2 1 2 3 5 7 8 7 6 6 6 6 6 6 5 2 -1 -1
19 21 17 23 23 20 20 21 22 22 21 24 18 21 22 21 21 23 23 23 17 20 24 22 22 23 23 22 20 12 17 12 8 7 8 8 8 9 4 4 -1 4 11 8 6 5 -7 -4 12 5 -2 1 1 2 7 7 6 4 4 4 4 6 7 8 7 8 7 6 7 7 6 7 9 10 10 9 7 7 7 6 6 6 6 5 5 4 3 1
25 25 24 21 20 20 23 21 22 21 18 22 20 22 24 22 20 22 24 25 23 21 24 21 23 24 23 22 22 21 22 22 19 16 17 12 4 14 7 5 3 0 4 3 1 1 -8 -2 -3 -5 -6 -2 -4 4 5 0 3 3 3 3 3 4 2 6 5 8 6 6 7 3 2 5 5 5 6 6 6 6 6 6 6 5 4 4 4 4 4 3
27 27 28 24 19 24 19 21 21 21 15 20 23 23 22 21 22 23 19 23 25 25 25 24 24 23 21 18 16 22 24 23 23 22 21 21 20 18 14 10 6 4 -2 2 3 2 -4 -5 -7 -7 -7 -6 -6 -2 -1 -1 -3 -3 -2 -1 0 2 4 7 7 8 9 7 1 -1 3 2 3 6 1 1 5 5 5 5 4 4 4 4 4 4 4 4